User: anonymous
Location: Lawrence
(38.9720°N, 95.2350°W)
Time: 03:26:02
(UTC-05:00)
Language:

JAS-1B - Orbit

View from above orbital plane
View from above orbital plane
View from above satellite
View from above satellite

Ground track
Ground track

The orbit data is extracted from the following two-line orbital elements,

1 20480U 90013C   14114.87857736 -.00000030  00000-0 -40821-5 0  7127
2 20480 099.0391 088.0451 0541075 114.5585 303.5456 12.83393134134296
Epoch (UTC): 24 April 2014 21:05:09
Eccentricity: 0.0541075
inclination: 99.0391°
perigee height: 911 km
apogee height: 1745 km
right ascension of ascending node: 88.0451°
argument of perigee: 114.5585°
revolutions per day: 12.83393134
mean anomaly at epoch: 303.5456°
orbit number at epoch: 13429

The dashed part of the orbit path shows where the satellite is in the earth's shadow,  

DLR